Location: Neuvy Saint Sepulchre
(46.5953°N, 1.8122°E)
Time: 05:42:32
(UTC+01:00)

ISS - Pass Details

Date: 03 December 2023
Orbit: 416 x 417 km, 51.6° (Epoch: 01 December)

Event Time Altitude Azimuth Distance (km) Brightness Sun altitude
Rises 18:13:53 0° 296° (WNW) 2,361 0.8 -11.2°
Reaches altitude 10° 18:15:59 10° 295° (WNW) 1,495 -0.3 -11.5°
Maximum altitude 18:19:20 83° 210° (SSW) 424 -3.7 -12.1°
Enters shadow 18:22:32 11° 121° (ESE) 1,426 -1.4 -12.6°
